Regional Weather Roundup
Issued by NWS

Home | Current Version | Previous Version | Text Only | Print | Product List | Glossary Off
Versions: 1 2 3 4 5 6 7 8 9 10 11 12 13 14 15 16 17 18 19 20 21 22 23 24 25 26 27 28 29 30 31 32 33 34 35 36 37 38 39 40 41 42 43 44 45 46 47 48 49 50

000
ASUS43 KLMK 170702
RWRKY
KENTUCKY REGIONAL WEATHER ROUNDUP
NATIONAL WEATHER SERVICE LOUISVILLE KY
300 AM EDT THU AUG 17 2017

NOTE "FAIR" INDICATES FEW OR NO CLOUDS BELOW 12,000 FEET
WITH NO SIGNIFICANT WEATHER AND/OR OBSTRUCTIONS TO VISIBILITY.

KYZ001>023-026-027-061>063-070>075-170800-
WESTERN AND SOUTH CENTRAL KENTUCKY

CITY           SKY/WX    TMP DP  RH WIND       PRES   REMARKS
PADUCAH        CLEAR     78  73  84 S5        29.91F
HENDERSON      NOT AVBL
OWENSBORO      CLEAR     75  73  93 S5        29.93S
HOPKINSVILLE   CLEAR     77  76  96 S8        29.95F
BOWLING GREEN  CLEAR     76  74  93 S5        29.97F
GLASGOW        CLEAR     76  74  96 S5        29.98S
$$

KYZ024-025-028>034-038-045-046-053-170800-
NORTH CENTRAL KENTUCKY

CITY           SKY/WX    TMP DP  RH WIND       PRES   REMARKS
LOUISVILLE/SDF MOCLDY    79  73  82 S9        29.92F
LOUISVILLE/LOU CLEAR     77  73  87 S6        29.94F
FORT KNOX      CLEAR     75  74  98 S7        29.93S
$$

KYZ035>037-039>044-047>052-055>060-089>105-170800-
NORTHEAST KENTUCKY

CITY           SKY/WX    TMP DP  RH WIND       PRES   REMARKS
LEXINGTON      CLEAR     75  71  87 S7        29.98F
COVINGTON      CLOUDY    75  72  90 S7        29.94F
FRANKFORT      CLOUDY    76  71  85 VRB3      29.95F
$$

KYZ054-064>069-076>088-106>120-170800-
SOUTHEAST KENTUCKY

CITY           SKY/WX    TMP DP  RH WIND       PRES   REMARKS
JACKSON        CLEAR     72  71  97 CALM      30.03F
LONDON         CLEAR     73  72  96 CALM      30.03F FOG
SOMERSET       NOT AVBL
MIDDLESBORO    MOCLDY    71  71 100 CALM      30.06F
MONTICELLO     SUNNY     71  70  96 CALM      30.03F FOG
$$




USA.gov is the U.S. government's official web portal to all federal, state and local government web resources and services.